This demonstration page uses our WeatherBlox Daily Observations layout. Learn more.

Left ArrowRight Arrow

Hourly Observations for September 9, 2021

Temp ( °F °C ) Dew Point ( °F °C ) Humidity (%) Winds ( mph kmh ) Pressure ( in mb ) Visibility ( mi km ) Precip ( " mm )
12:53 am 00:53 Clear 62 16.7 54 12.2 75 75 E 6 9 30.06 1018 10 16 0.00 0.00
1:53 am 01:53 Clear 60 15.6 53 11.7 78 78 E 5 7 30.08 1019 10 16 0.00 0.00
2:53 am 02:53 Clear 58 14.4 53 11.7 84 84 E 6 9 30.07 1018 10 16 0.00 0.00
3:53 am 03:53 Clear 59 15 53 11.7 81 81 E 6 9 30.06 1018 10 16 0.00 0.00
4:53 am 04:53 Clear 58 14.4 52 11.1 81 81 E 7 11 30.05 1018 10 16 0.00 0.00
5:53 am 05:53 Clear 59 15 50 10 72 72 E 6 9 30.03 1017 10 16 0.00 0.00
6:53 am 06:53 Clear 56 13.3 50 10 81 81 E 7 11 30.05 1018 10 16 0.00 0.00
7:53 am 07:53 Sunny 57 13.9 50 10 78 78 E 9 15 30.05 1018 9 14 0.00 0.00
8:53 am 08:53 Sunny 62 16.7 51 10.6 67 67 E 7 11 30.05 1018 10 16 0.00 0.00
9:53 am 09:53 Sunny 67 19.4 52 11.1 59 59 ESE 9 15 30.04 1017 10 16 0.00 0.00
10:53 am 10:53 Sunny 70 21.1 54 12.2 57 57 ESE 10 17 30.03 1017 10 16 0.00 0.00
11:53 am 11:53 Sunny 73 22.8 55 12.8 53 53 ESE 9 15 30.02 1017 10 16 0.00 0.00
12:53 pm 12:53 Sunny 77 25 56 13.3 48 48 SSE 8 13 30.01 1016 10 16 0.00 0.00
1:53 pm 13:53 Sunny 78 25.6 55 12.8 45 45 E 7 11 29.99 1016 10 16 0.00 0.00
2:53 pm 14:53 Sunny 80 26.7 57 13.9 45 45 SE 9 15 29.98 1015 10 16 0.00 0.00
3:53 pm 15:53 Sunny 80 26.7 56 13.3 44 44 ESE 13 20 29.96 1015 10 16 0.00 0.00
4:53 pm 16:53 Sunny 79 26.1 57 13.9 47 47 ESE 9 15 29.96 1015 10 16 0.00 0.00
5:53 pm 17:53 Sunny 78 25.6 56 13.3 47 47 SSE 10 17 29.96 1015 10 16 0.00 0.00
6:53 pm 18:53 Sunny 76 24.4 57 13.9 52 52 SE 7 11 29.96 1015 10 16 0.00 0.00
7:53 pm 19:53 Clear 74 23.3 57 13.9 56 56 SE 6 9 29.95 1014 10 16 0.00 0.00
8:53 pm 20:53 Clear 72 22.2 58 14.4 61 61 SSE 5 7 29.95 1014 10 16 0.00 0.00
9:53 pm 21:53 Clear 71 21.7 58 14.4 63 63 SSE 6 9 29.95 1014 10 16 0.00 0.00
10:53 pm 22:53 Clear 70 21.1 58 14.4 66 66 SSE 8 13 29.93 1014 10 16 0.00 0.00
11:53 pm 23:53 Clear 68 20 58 14.4 70 70 SSE 8 13 29.93 1014 10 16 0.00 0.00

Powered by AerisWeather